Regional Weather Roundup
Issued by NWS

Home | Current Version | Previous Version | Graphics & Text | Print | Product List | Glossary Off
Versions: 1 2 3 4 5 6 7 8 9 10 11 12 13 14 15 16 17 18 19 20 21 22 23 24 25 26 27 28 29 30 31 32 33 34 35 36 37 38 39 40 41 42 43 44 45 46 47 48 49 50

000
ASUS45 KPSR 292000
RWRAZ

ARIZONA REGIONAL HOURLY WEATHER ROUNDUP
NATIONAL WEATHER SERVICE PHOENIX AZ
100 PM MST SUN MAR 29 2015

NOTE: FAIR INDICATES FEW OR NO CLOUDS BELOW 12,000 FEET WITH NO
SIGNIFICANT WEATHER AND/OR OBSTRUCTIONS TO VISIBILITY.

AZZ001>003-036-292100-
NORTHWEST ARIZONA

CITY           SKY/WX    TMP DP  RH WIND       PRES   REMARKS
KINGMAN        MOSUNNY   83  21  10 W9        30.13F
$$

AZZ004>008-015-016-018-292100-
NORTH CENTRAL ARIZONA

CITY           SKY/WX    TMP DP  RH WIND       PRES   REMARKS
GRAND CANYON   MOSUNNY   69  19  15 CALM      30.29F
WILLIAMS       SUNNY     70  21  16 W13G20    30.36F
PRESCOTT       CLOUDY    75  13   9 W10       30.22F
FLAGSTAFF      NOT AVBL
PAYSON         PTSUNNY   73  23  15 SW10      30.26F
PAGE           SUNNY     76  21  12 VRB7      30.18F
$$

AZZ009>014-017-292100-
NORTHEAST ARIZONA

CITY           SKY/WX    TMP DP  RH WIND       PRES   REMARKS
WINSLOW        NOT AVBL
SAINT JOHNS    SUNNY     75  11   8 W12       30.23F
WINDOW ROCK    SUNNY     72  14  11 VRB3      30.26F
SHOW LOW       MOSUNNY   72  14  11 W13G22    30.30F
$$

AZZ023-292100-
GREATER PHOENIX AREA

CITY           SKY/WX    TMP DP  RH WIND       PRES   REMARKS
PHOENIX        PTSUNNY   92  24   8 SE5       30.00F
GLENDALE       PTSUNNY   90  23   9 CALM      30.02F
DEER VALLEY    MOSUNNY   88  20   8 S8        30.02F
SCOTTSDALE     MOSUNNY   89  18   7 CALM      30.04F
MESA-GATEWAY   MOSUNNY   90  25   9 SE3       30.05F
CHANDLER       PTSUNNY   90  23   9 VRB5      30.02F
$$

AZZ027-028-292100-
SOUTHWEST MARICOPA COUNTY AND PINAL COUNTY

CITY           SKY/WX    TMP DP  RH WIND       PRES   REMARKS
CASA GRANDE    MOSUNNY   90  30  12 CALM      30.01F
$$

AZZ503-504-507>509-292100-
SOUTHEAST ARIZONA

CITY           SKY/WX    TMP DP  RH WIND       PRES   REMARKS
TUCSON         MOSUNNY   90  19   7 NE6       30.09F
NOGALES        MOSUNNY   85  21   9 VRB5G21   30.16F
SAFFORD        MOSUNNY   84  17   8 CALM      30.10F
$$

AZZ020-021-025-026-031-292100-
SOUTHWEST ARIZONA

CITY           SKY/WX    TMP DP  RH WIND       PRES   REMARKS
YUMA           NOT AVBL
$$

CAZ031-033-041-043-047-048-061-292100-
SOUTHERN CALIFORNIA

CITY           SKY/WX    TMP DP  RH WIND       PRES   REMARKS
DOWNTOWN L.A.  SUNNY     76  57  51 W5        30.03F HAZE
L.A. AIRPORT   MOSUNNY   67  57  70 W8        30.05F
SAN DIEGO      PTSUNNY   71  56  58 W6        30.05F
BURBANK        SUNNY     82  41  23 S6        30.03F
ONTARIO        PTSUNNY   84  33  16 VRB7      30.02F
RIVERSIDE      PTSUNNY   85  30  13 W5        30.01F
PALM SPRINGS   MOSUNNY   95  16   5 MISG      29.97F
EL CENTRO NAS  PTSUNNY   91  30  11 SE7       29.94F
IMPERIAL       PTSUNNY   90  27  10 CALM      29.95F
BLYTHE         MOSUNNY   91  35  13 VRB6      29.98F
$$

NVZ020-UTZ003-292100-
SOUTHERN NEVADA-UTAH

CITY           SKY/WX    TMP DP  RH WIND       PRES   REMARKS
LAS VEGAS      NOT AVBL
SALT LAKE CITY MOSUNNY   63  19  18 NW9       30.27F
$$

NMZ009-TXZ055-292100-
NEW MEXICO-WEST TEXAS

CITY           SKY/WX    TMP DP  RH WIND       PRES   REMARKS
ALBUQUERQUE    PTSUNNY   75  20  12 NW5       30.21F
EL PASO        PTSUNNY   85   7   5 CALM      30.15F
$$


........................KEY........................
SKY/WX - SKY CONDITION/WEATHER
TMP    - TEMPERATURE IN FAHRENHEIT
DP     - DEW POINT IN FAHRENHEIT
RH     - RELATIVE HUMIDITY IN PERCENT
WIND   - DIRECTION AND SPEED IN MILES PER HOUR (MPH)
VRB    - VARIABLE WIND DIRECTION
PRES   - MEAN SEA LEVEL PRESSURE IN INCHES OF MERCURY
         F - FALLING PRESSURE   R - RISING PRESSURE
         S - STEADY PRESSURE
VSB    - VISIBILITY IN MILES
HX     - HEAT INDEX IN FAHRENHEIT
WCI    - WIND CHILL INDEX IN FAHRENHEIT
TC     - TEMPERATURE IN CELSIUS WHICH IS ALSO KNOWN AS
         TEMPERATURE IN CENTIGRADE
AFB    - AIR FORCE BASE
         LUKE AFB IS LUKE AIR FORCE BASE
         DAVIS-MONTHAN IS DAVIS-MONTHAN AIR FORCE BASE
NAS    - NAVAL AIR STATION
         EL CENTRO NAS IS EL CENTRO NAVAL AIR STATION
N/A    - NOT AVAILABLE



USA.gov is the U.S. government's official web portal to all federal, state and local government web resources and services.